Theta_e
316 315 314 313 313 313 313 313 313 313 313 312 311 311 311 311 312 314 315 320 329 328 329 328 332 332 345 339 343 337 343 348 350 351 357 358 358 356 353 354 355 351 352 350 350
312 312 312 313 312 312 312 313 313 313 313 312 311 311 311 311 314 319 321 320 322 323 329 327 327 328 331 333 335 338 343 346 345 347 360 360 358 356 358 356 355 356 352 352 351
311 310 311 313 313 313 312 312 313 313 313 312 311 311 311 313 318 317 326 328 321 320 323 327 329 333 335 332 335 339 343 341 344 355 358 359 357 354 357 357 352 356 354 352 350
313 311 310 310 312 313 313 312 312 313 313 312 311 312 311 319 318 322 326 328 329 321 322 328 331 335 335 335 333 343 341 341 355 356 358 360 355 356 355 352 350 352 352 351 350
316 315 314 311 311 312 313 313 313 313 313 311 311 311 315 311 314 322 320 324 327 324 327 328 335 334 336 334 335 341 341 342 350 354 356 357 359 359 355 352 350 350 351 351 350
317 316 316 315 313 312 313 313 313 313 312 311 311 312 319 310 315 323 320 321 329 328 329 329 335 334 335 334 336 340 343 344 351 355 357 361 360 357 355 354 353 351 350 349 348
316 316 316 316 316 314 312 314 314 313 311 311 311 313 317 308 316 316 318 320 321 325 328 331 334 335 335 334 334 341 344 344 349 354 359 357 360 360 354 355 356 354 351 350 348
316 315 316 316 317 316 314 314 314 314 311 311 312 315 309 313 316 317 319 320 322 323 326 330 333 332 333 331 332 341 342 348 346 353 358 342 355 359 353 355 356 355 353 352 350
316 316 316 317 317 317 315 315 314 313 312 313 316 317 313 316 319 320 319 320 322 323 325 331 330 329 330 331 331 332 345 346 347 348 356 352 355 358 354 354 355 354 353 353 351
317 316 316 317 317 318 315 315 316 317 317 318 318 311 313 317 317 319 320 320 321 322 328 329 326 329 326 329 335 337 336 337 344 346 351 354 349 358 355 354 354 353 352 351 351
317 317 317 317 317 317 317 313 310 312 315 315 310 308 312 316 317 319 319 319 320 322 330 327 331 335 332 331 332 333 333 335 335 340 349 351 348 358 356 354 354 353 352 350 351
317 316 316 317 317 317 317 311 312 316 318 313 313 312 314 315 317 316 318 318 320 321 326 328 331 330 331 330 332 332 333 334 334 337 347 346 347 356 356 355 353 352 352 350 348
315 315 315 317 317 317 314 315 316 316 315 314 313 315 315 316 316 316 316 317 320 322 326 329 330 329 331 331 332 331 333 334 334 341 340 343 346 358 354 352 350 348 348 347 348
314 313 312 315 315 315 316 316 315 316 310 313 316 315 317 316 318 317 314 317 319 321 325 327 327 330 331 331 331 332 330 332 337 340 345 339 340 345 352 354 351 349 347 349 351
312 311 310 311 313 314 315 315 317 311 312 314 317 317 316 315 316 317 315 318 317 323 325 329 326 328 330 331 330 329 329 331 332 335 335 339 337 335 343 350 352 349 348 352 351
309 310 311 312 312 317 317 317 314 311 313 318 317 318 318 314 316 314 318 317 317 322 321 325 321 324 323 325 326 327 328 326 324 324 330 329 336 336 346 345 345 351 349 350 349
310 311 311 310 315 317 317 311 314 317 314 319 319 317 314 315 317 316 317 317 318 319 321 321 322 322 323 325 323 324 324 328 331 330 331 330 337 336 340 341 343 349 349 348 346
311 312 314 315 316 315 315 314 320 314 318 317 318 317 316 313 315 313 314 313 315 317 316 321 322 323 323 323 324 324 323 326 335 332 331 337 341 343 344 347 347 351 344 344 344
312 313 314 316 316 315 311 314 313 313 318 318 314 315 316 315 313 313 312 310 311 315 320 319 321 320 322 324 323 326 328 324 325 329 336 341 346 345 346 351 350 349 346 344 342
311 312 314 317 315 313 313 314 315 315 317 316 317 318 318 318 319 312 310 310 313 314 315 316 319 319 321 322 323 325 324 330 327 339 342 346 348 346 349 351 351 350 349 348 346
311 311 316 316 315 312 317 314 316 315 316 317 318 317 317 319 318 313 312 312 312 312 314 315 317 319 322 322 321 320 324 324 326 331 341 345 346 337 345 351 351 349 348 347 350
306 316 316 315 314 309 316 315 316 317 317 317 316 316 316 318 319 314 312 313 313 313 316 315 313 316 319 319 319 320 319 325 325 331 338 336 338 340 344 351 350 350 351 350 348
307 309 316 317 316 315 315 317 317 318 318 318 317 316 315 318 320 319 317 316 314 316 316 315 315 317 318 318 318 321 323 323 325 332 341 339 334 341 344 345 347 347 349 347 346
309 323 319 314 311 318 323 323 323 323 321 319 318 316 317 318 316 321 324 324 321 314 330 321 311 317 319 319 322 330 330 326 329 334 334 336 336 345 345 347 346 343 346 346 343
308 317 317 323 322 324 326 327 331 333 328 325 324 316 319 320 319 321 321 321 322 336 320 314 316 314 317 318 324 325 333 329 328 330 337 336 342 343 344 347 345 341 345 346 342
312 314 312 317 318 327 325 331 335 337 336 333 321 322 328 319 320 322 321 321 325 322 320 313 317 319 324 327 332 336 333 328 332 333 338 339 342 339 340 342 344 349 347 347 342
307 308 312 318 322 326 329 332 334 333 332 332 333 336 336 330 322 320 317 317 323 327 320 317 323 326 322 333 333 336 334 331 334 335 337 341 337 343 344 345 345 349 349 346 342
Wind_Speed
18 19 19 20 19 20 20 20 20 18 17 17 17 19 21 25 25 10 4 6 1 6 2 4 2 3 8 2 3 3 4 0 3 2 4 6 4 2 5 5 2 2 5 16 25
21 20 20 20 20 20 20 21 20 19 18 17 17 18 20 24 18 7 7 10 10 6 2 4 5 5 2 2 1 3 3 7 5 5 5 6 3 5 3 3 4 10 16 26 25
22 22 22 21 20 20 20 21 20 19 18 16 16 18 20 17 4 2 12 5 11 14 7 4 2 2 4 2 3 4 5 5 3 7 9 7 3 2 8 1 4 14 18 17 19
23 23 23 23 22 21 21 21 21 18 17 15 14 16 17 6 4 4 10 11 6 10 7 2 4 4 4 4 3 1 2 3 8 8 6 7 5 5 2 2 10 14 16 13 14
24 25 25 25 24 23 22 22 21 18 15 12 12 14 6 5 7 1 9 7 10 9 4 1 2 1 3 4 2 2 4 5 9 9 7 8 5 4 4 8 10 13 12 12 11
25 25 26 26 26 25 23 23 21 17 12 9 9 10 3 3 2 4 11 5 4 5 4 5 3 2 1 3 3 1 6 4 8 6 6 9 4 3 3 8 8 10 9 8 9
27 27 27 28 27 27 26 23 22 16 9 7 6 5 1 13 3 13 12 5 2 4 3 5 5 1 2 3 3 6 6 5 3 3 4 13 1 4 7 10 9 8 7 8 7
29 30 31 30 30 29 28 23 21 12 6 5 5 2 7 6 14 12 7 1 1 3 6 5 5 2 1 1 6 5 5 3 4 5 7 2 2 3 10 12 10 10 9 10 11
30 31 33 32 31 31 27 25 15 4 3 3 1 3 9 12 5 10 3 2 3 3 4 5 5 3 5 4 5 6 2 2 1 6 5 0 3 6 10 12 10 11 10 10 8
31 33 34 33 32 32 27 16 3 1 0 2 1 3 5 4 8 16 4 3 1 2 3 4 5 4 4 5 2 1 3 3 5 6 5 7 4 10 13 12 13 11 10 10 9
31 34 35 33 34 30 19 2 4 3 1 6 3 4 5 11 6 4 3 4 3 7 3 3 4 5 6 5 5 4 5 8 6 7 9 11 6 14 14 13 13 12 10 10 13
31 34 35 31 32 14 13 4 6 0 8 7 8 6 9 2 4 5 1 5 3 4 4 4 5 4 4 6 5 6 5 3 4 5 10 7 4 11 15 19 15 13 12 12 6
31 33 35 31 22 7 12 3 1 11 2 7 4 4 5 10 7 7 6 4 4 5 4 6 5 5 4 3 3 3 3 0 3 5 5 5 3 5 8 8 10 7 7 4 4
31 32 33 33 4 19 6 4 20 6 5 7 4 6 3 5 4 8 7 5 2 10 8 5 5 5 1 1 4 5 5 4 4 3 3 3 4 5 5 11 11 8 7 8 13
30 30 32 25 15 6 5 19 4 1 3 2 1 1 2 6 1 2 4 5 7 6 7 7 5 3 3 4 5 6 2 4 3 5 5 2 3 5 1 8 15 10 8 10 12
29 30 31 10 13 11 8 17 2 5 5 5 1 0 3 5 3 1 3 4 4 4 3 6 2 1 6 3 5 6 4 6 4 3 2 3 3 5 3 4 3 4 8 13 14
33 30 24 17 5 8 16 3 5 3 5 6 3 3 2 4 3 2 3 3 6 4 4 4 3 3 3 2 4 6 6 4 4 3 5 3 3 7 7 5 6 10 10 9 6
34 24 14 17 3 3 3 5 2 3 5 5 5 2 1 3 2 2 3 2 2 6 3 5 7 6 4 7 6 5 7 5 2 2 4 1 3 5 1 3 4 6 8 6 5
25 11 10 6 10 9 5 3 7 5 4 7 7 6 6 3 4 2 4 6 7 7 7 5 5 5 3 4 7 3 3 4 7 3 3 3 5 8 2 2 3 6 8 7 6
17 8 5 6 8 9 4 5 4 4 4 3 3 3 4 5 2 3 6 5 7 10 4 6 1 3 5 3 2 3 5 3 3 4 3 4 5 6 6 7 4 4 4 4 2
5 3 11 7 10 5 4 6 5 6 4 1 1 4 3 3 2 3 5 5 6 7 6 6 4 5 2 3 7 1 1 6 5 4 5 3 6 6 10 7 7 3 5 5 3
6 2 7 13 4 1 4 5 3 4 2 5 2 7 5 2 4 4 6 7 8 11 11 8 6 5 11 5 3 3 7 6 5 4 2 2 6 3 4 7 6 6 6 6 7
2 2 2 4 4 1 4 3 3 2 4 2 3 6 3 3 3 6 5 7 5 6 9 8 1 1 9 6 2 4 5 4 5 4 7 6 6 3 5 6 6 8 8 8 8
2 2 3 3 1 4 2 3 3 3 5 4 5 1 2 3 6 5 3 3 2 7 9 10 4 7 9 8 4 4 5 5 5 4 6 6 4 6 6 7 6 7 8 9 8
3 1 2 1 2 0 1 1 2 4 3 3 3 4 1 4 4 4 3 5 4 1 3 5 9 8 7 7 5 5 4 7 8 2 6 8 11 9 15 12 9 8 6 10 10
2 3 4 2 3 1 3 2 1 2 2 5 4 5 7 6 7 5 1 3 6 1 3 3 3 7 5 5 7 3 2 7 5 4 3 7 4 3 9 8 9 10 10 10 10
6 3 1 3 2 1 3 3 3 3 5 10 5 7 7 12 6 9 7 9 6 3 3 4 5 4 7 4 6 1 8 6 4 5 6 6 8 10 8 12 14 13 13 12 10
Wind_Direction
4 3 4 2 356 356 355 355 351 345 340 336 336 336 334 329 325 315 231 228 104 175 341 347 251 255 166 230 204 120 62 104 184 169 121 137 125 57 82 118 64 97 132 135 149
7 6 4 2 1 359 357 356 351 344 339 337 337 336 336 333 328 303 325 248 226 227 273 19 320 345 80 185 243 99 113 214 192 143 130 140 103 117 124 99 66 87 113 131 146
5 2 359 358 359 358 356 354 350 345 338 337 337 335 336 337 326 279 3 345 230 228 231 305 307 43 42 0 165 196 182 173 111 109 120 118 112 97 125 221 197 156 144 142 149
4 2 358 356 355 355 353 351 348 342 336 335 337 335 334 340 154 46 19 23 164 193 205 20 0 23 26 6 308 205 15 85 125 117 109 132 98 111 313 201 117 147 145 150 162
6 4 359 355 351 349 347 344 343 338 331 332 336 341 358 5 250 83 24 31 88 144 151 138 32 78 352 320 349 81 29 41 113 120 124 121 98 114 70 94 106 132 152 165 175
2 -0 357 353 348 344 340 338 337 332 327 329 338 343 31 286 237 228 350 66 103 162 159 154 189 251 249 329 41 263 79 79 101 123 110 114 130 78 130 122 129 149 166 173 188
360 357 354 350 346 341 334 334 331 325 320 328 343 351 113 237 223 305 311 316 273 197 173 200 172 20 355 348 268 107 89 64 92 125 94 117 74 152 152 145 161 172 188 191 199
356 354 352 348 343 336 332 330 324 315 313 326 343 28 252 287 310 301 288 305 200 206 226 221 173 127 132 351 24 62 72 113 234 145 173 88 219 184 163 163 185 189 197 212 215
353 351 349 346 341 333 330 328 321 295 300 308 34 77 272 313 340 350 297 231 310 153 235 122 108 101 32 66 30 12 157 208 196 208 166 146 184 189 177 184 191 200 206 213 231
348 348 347 344 340 333 331 328 356 293 104 67 58 9 290 307 314 314 292 224 104 353 78 69 59 82 50 62 129 351 18 276 233 205 184 180 231 169 183 200 204 204 205 213 215
345 344 343 343 340 338 344 15 16 348 51 216 198 266 282 330 307 299 337 136 112 61 136 20 86 215 184 155 160 177 210 236 251 217 175 200 173 186 190 209 215 212 222 219 217
342 342 340 340 338 354 8 60 97 65 304 250 244 259 268 335 308 298 240 139 117 169 134 31 212 183 147 156 166 192 231 265 283 298 178 154 194 195 191 212 215 206 209 217 231
339 339 337 338 338 5 344 109 253 332 231 295 211 208 216 152 214 259 147 118 115 139 161 176 216 162 142 121 35 219 251 213 272 0 41 108 337 195 218 212 222 217 214 169 141
336 336 336 338 0 335 323 329 327 186 44 283 287 292 141 159 260 214 199 134 141 187 148 231 231 211 208 122 136 310 209 255 144 124 219 180 257 240 230 217 231 218 187 124 126
332 332 332 338 307 304 314 330 350 132 357 273 258 350 87 170 277 287 201 68 167 160 127 235 175 136 142 203 168 240 291 278 323 145 101 272 88 274 120 227 224 218 156 145 146
327 329 325 325 303 295 307 341 101 40 259 339 102 104 113 348 317 24 125 69 154 140 75 207 320 160 176 180 185 254 23 34 54 95 57 303 124 286 207 226 275 186 173 167 173
327 321 309 291 246 305 324 18 41 153 322 331 340 7 174 192 281 61 143 139 145 126 260 355 236 251 157 13 350 76 59 339 354 17 212 298 81 244 269 299 243 213 170 173 166
325 318 297 262 241 279 324 53 187 268 262 309 335 301 216 166 223 47 80 164 73 91 98 156 319 180 170 169 184 182 156 152 254 238 280 319 230 254 240 331 344 106 127 129 136
329 316 287 286 234 207 79 96 208 213 285 337 332 55 343 29 117 129 193 201 202 170 158 131 264 280 224 134 145 170 176 183 107 15 73 289 293 300 288 61 72 108 142 143 161
327 324 289 309 172 149 83 219 232 224 324 352 333 33 352 316 56 163 194 209 199 188 152 197 335 238 269 113 40 156 155 76 13 138 221 286 274 241 256 235 160 180 118 127 137
342 8 352 139 134 55 150 226 259 243 212 258 243 324 264 277 238 215 219 250 198 183 132 137 121 280 94 169 193 60 34 54 116 118 159 173 260 217 214 190 189 187 101 122 85
346 43 2 143 64 348 159 199 237 277 246 262 210 217 224 266 269 235 223 231 163 152 159 196 160 194 220 237 176 154 210 152 123 228 142 157 267 308 192 141 164 116 117 83 77
18 277 71 331 122 263 288 268 234 273 262 251 272 213 190 255 283 215 219 262 139 141 163 177 228 249 324 348 77 197 188 142 113 88 190 146 257 4 101 140 133 136 122 117 113
57 38 348 52 296 118 47 289 306 276 253 236 269 247 303 279 226 288 307 306 353 211 176 126 138 169 219 209 177 201 180 167 143 136 169 218 217 235 191 172 145 131 131 124 125
28 0 152 305 313 242 221 284 301 340 298 280 272 215 25 284 307 230 242 309 322 36 82 122 192 172 226 209 187 243 193 178 208 190 162 220 192 213 190 179 153 144 129 126 127
40 26 348 260 298 266 122 180 222 283 230 281 209 311 287 230 208 266 274 235 246 324 97 5 229 167 235 180 187 238 202 182 175 154 264 125 253 168 126 118 134 151 158 148 154
356 336 100 280 343 113 212 198 226 0 262 242 302 320 262 247 254 247 227 260 252 295 157 134 131 114 239 180 119 331 218 198 168 177 147 169 215 153 142 159 170 163 166 168 164